Location: Gloden
(48.4833°N, 15.3167°E)
Time: 06:11:55
(UTC+00:00)

Cosmos 1503 Rocket - Pass Details

Date: 15 December 2019
Orbit: 752 x 792 km, 74.0° (Epoch: 23 January)

Event Time Altitude Azimuth Distance (km) Brightness Sun altitude
Exits shadow 05:26:33 - 338° (NNW) 2,745 6.5 -12.0°
Reaches altitude 10° 05:27:35 10° 338° (NNW) 2,342 6.1 -11.9°
Maximum altitude 05:32:56 83° 67° (ENE) 797 4.1 -11.0°
Drops below altitude 10° 05:38:17 10° 156° (SSE) 2,347 7.3 -10.2°
Sets 05:40:41 0° 157° (SSE) 3,274 8.1 -9.9°
